Location: Unspecified
(40.7945°N, 0.0000°E)
Time: 10:35:45
(UTC+00:00)

deb Explorer IX - Pass Details

Date: 28 January 2021
Orbit: 538 x 1101 km, 38.8° (Epoch: 07 March)

Event Time Altitude Azimuth Distance (km) Brightness Sun altitude
Rises 20:04:14 0° 278° (W) 3,614 ? -32.5°
Reaches altitude 10° 20:07:07 10° 273° (W) 2,577 ? -33.0°
Enters shadow 20:11:33 39° 240° (WSW) 1,217 ? -33.9°
